This is the latest recevied weather packets stored in our database for station/object N1UNH. If no packets are shown the sender has not sent any weather packets the latest 10 day(s).
| Time | Temp. | Humidity | Pressure | Rain* | Wind** | Luminosity | Snow |
|---|---|---|---|---|---|---|---|
| 1777693871 | 5° C | 71% | 1017.1 hPa | 0 mm | - | 0 W/m² | - |
| 1777693569 | 5° C | 70% | 1017 hPa | 0 mm | - | 0 W/m² | - |
| 1777693267 | 5° C | 71% | 1016.8 hPa | 0 mm | - | 0 W/m² | - |
| 1777692965 | 5° C | 73% | 1016.8 hPa | 0 mm | - | 0 W/m² | - |
| 1777692662 | 5° C | 73% | 1016.7 hPa | 0 mm | - | 0 W/m² | - |
| 1777692358 | 5° C | 71% | 1016.8 hPa | 0 mm | - | 0 W/m² | - |
| 1777692055 | 5° C | 71% | 1016.9 hPa | 0 mm | - | 0 W/m² | - |
| 1777691753 | 5° C | 74% | 1017 hPa | 0 mm | - | 0 W/m² | - |
| 1777691450 | 5° C | 70% | 1016.7 hPa | 0 mm | - | 0 W/m² | - |
| 1777691149 | 5° C | 72% | 1016.8 hPa | 0 mm | - | 0 W/m² | - |
| 1777690846 | 5° C | 70% | 1016.7 hPa | 0 mm | - | 0 W/m² | - |
| 1777690543 | 5° C | 70% | 1017 hPa | 0 mm | - | 0 W/m² | - |
| 1777690242 | 5° C | 69% | 1016.8 hPa | 0 mm | - | 0 W/m² | - |
| 1777689939 | 5.56° C | 67% | 1016.8 hPa | 0 mm | - | 0 W/m² | - |
| 1777689637 | 5.56° C | 67% | 1016.6 hPa | 0 mm | - | 0 W/m² | - |
| 1777689334 | 5.56° C | 68% | 1016.8 hPa | 0 mm | - | 0 W/m² | - |
| 1777689031 | 5.56° C | 66% | 1016.6 hPa | 0 mm | - | 0 W/m² | - |
| 1777688728 | 5.56° C | 66% | 1016.7 hPa | 0 mm | - | 0 W/m² | - |
| 1777688426 | 5.56° C | 66% | 1017 hPa | 0 mm | - | 0 W/m² | - |
| 1777688123 | 5.56° C | 64% | 1016.7 hPa | 0 mm | - | 0 W/m² | - |
| 1777687820 | 6.11° C | 64% | 1016.7 hPa | 0 mm | - | 0 W/m² | - |
| 1777687518 | 6.11° C | 65% | 1016.7 hPa | 0 mm | - | 0 W/m² | - |
| 1777687214 | 6.11° C | 62% | 1016.8 hPa | 0 mm | - | 0 W/m² | - |
| 1777686912 | 6.67° C | 61% | 1016.7 hPa | 0 mm | - | 0 W/m² | - |
| 1777686608 | 6.67° C | 61% | 1016.9 hPa | 0 mm | - | 0 W/m² | - |
* Rain latest hour (hover to see other rain measurements)
** Current wind speed in m/s (hover to see current wind gust speed)